www.pogodaiklimat.ru

Погода и климат >> Архив погоды >> Россия >> Краснодарский край >> Крымск


ПОГОДА в Крымске

  • Прогноз погоды в Крымске
  • Монитор погоды в Крымске

АРХИВ ПОГОДЫ в Крымске

Время (UTC), дата Ветер
(напр.,м/с)
 
Видим.   Явления Облачность Т
(С)
Тd
(С)
f
(%)
Тe
(С)
Тes
(С)
Комфортность P
(гПа)
Po
(гПа)
Тmin
(С)
Tmax
(С)
R
(мм)
R24
(мм)
S
(см)
09 9.07 СЗ 3 20 км {гроза} 3/3 600 м
[Cu med, cong]
+26.5 +11.9 40 +28 +39 жарко 1011.3 1007.4
12 9.07 СЗ 4 20 км 4/4 600 м
[Cu med, cong]
+25.5 +12.2 44 +27 +33 жарко 1011.7 1007.8
15 9.07 СЗ 3 20 км 6/3 600 м
[Sc diur, vesp Ac trans Ci fib]
+25.2 +7.5 32 +25 +26 комфорт 1011.7 1007.8 +27.0
18 9.07 З 1 10 км 3/3 600 м
[Cb cap]
+20.1 +11.2 57 +23 +23 комфорт 1012.1 1008.1
21 9.07 ЮЗ 1 10 км 6/3 600 м
[Sc Ac trans]
+18.3 +13.0 71 +20 +20 1011.5 1007.5
00 10.07 ЮЗ 1 10 км 8/0
[Ac trans]
+18.0 +12.6 71 +19 +19 1010.2 1006.2
03 10.07 З 1 20 км слаб. ливневой дождь 10/6 600 м
[Cb cap Ac trans]
+16.6 +13.9 84 +17 +18 1009.1 1005.1 +16.5 0.3
06 10.07 С 2 10 км слаб. ливневой дождь 10/10 600 м
[Cb cap]
+18.3 +17.0 92 +19 +19 1009.4 1005.4
09 10.07 В 2 20 км {ливн. осадки} 8/4 600 м
[Sc Ac trans]
+20.8 +14.4 67 +24 +31 комфорт 1009.3 1005.3
12 10.07 штиль 0 20 км 9/5 600 м
[Cb cap Ac trans]
+22.7 +15.8 65 +27 +32 душно 1007.7 1003.8
15 10.07 С 2 20 км {ливн. осадки} 10/5 600 м
[Cb cap Ac trans Ci fib]
+20.9 +16.9 78 +25 +26 комфорт 1007.9 1003.9 +22.7 5
18 10.07 Ю 1 10 км {ливн. осадки} 10/0
[Ac lent Ci fib]
+19.2 +17.3 89 +22 +22 комфорт 1008.2 1004.3
21 10.07 Ю 1 10 км {ливн. осадки} 8/3 600 м
[Cb cap Ac trans]
+18.7 +16.7 88 +21 +21 комфорт 1007.1 1003.1
00 11.07 ЮЗ 1 10 км {ливн. осадки} 8/5 600 м
[Sc Ac trans]
+18.2 +16.8 92 +20 +20 1006.2 1002.3
03 11.07 В 1 10 км {ливн. осадки} 10/8 600 м
[Cb cap Ac und]
+18.1 +16.3 89 +19 +20 1005.7 1001.8 +17.8 0.3
06 11.07 СВ 1 10 км слаб. ливневой дождь 10/10 600 м
[Cb cap]
+18.0 +16.2 89 +19 +19 1006.1 1002.1
09 11.07 СВ 2 10 км в посл. час ливневой дождь 10/10 600 м
[Cb cap]
+18.1 +15.9 87 +19 +19 1006.3 1002.4
12 11.07 СВ 3 10 км {ливн. осадки} 10/10 600 м
[Cb cap]
+18.7 +15.9 84 +20 +20 1006.1 1002.1
15 11.07 В 2 10 км 10/6 600 м
[Cb cap Ac As]
+18.6 +15.3 81 +20 +20 1006.2 1002.2 +19.5 6
18 11.07 СВ 1 10 км в посл. час ливневой дождь 10/10 600 м
[Cb cap]
+16.9 +15.4 91 +18 +18 1006.4 1002.5
21 11.07 штиль 0 10 км {ливн. осадки} 10/10 600 м
[Cb cap]
+16.7 +15.4 92 +17 +17 1006.5 1002.5
00 12.07 В 2 10 км слаб. ливневой дождь 10/10 600 м
[Cb cap]
+15.2 +13.8 91 +15 +15 1007.1 1003.1
03 12.07 ЮЗ 1 20 км в посл. час ливневой дождь 8/3 600 м
[Cb cap Ac trans]
+14.1 +12.7 91 +14 +15 1007.7 1003.7 +13.9 6
06 12.07 ЮВ 1 20 км {ливн. осадки} 6/5 600 м
[Cb cap Ac trans]
+19.1 +12.5 66 +21 +26 комфорт 1008.4 1004.4
09 12.07 СЗ 2 20 км 3/0
[Ac trans]
+23.2 +11.3 47 +25 +41 комфорт 1008.4 1004.5
12 12.07 В 1 20 км 6/4 1000 м
[Cu med, cong Ci]
+25.7 +10.5 38 +27 +35 жарко 1008.1 1004.2
15 12.07 ЮВ 1 20 км гроза без осадков 10/6 600 м
[Cb cap Ac und]
+24.0 +11.0 44 +25 +26 комфорт 1008.1 1004.2 +25.8
18 12.07 ЮЗ 1 10 км {гроза} 8/6 600 м
[Sc diur, vesp Ac trans]
+19.5 +15.2 76 +22 +22 комфорт 1008.9 1005.0
21 12.07 З 1 10 км {гроза} 10/6 600 м
[Cb cap Ac und]
+17.7 +14.7 83 +19 +19 1009.0 1005.0
00 13.07 Ю 4 10 км слаб. ливневой дождь 10/10 600 м
[Cb cap]
+16.5 +14.3 87 +16 +16 1008.9 1004.9
03 13.07 З 1 20 км слаб. ливневой дождь {гроза} 8/8 600 м
[Cb cap]
+15.1 +13.8 92 +16 +16 1008.2 1004.2 +15.0 3
06 13.07 С 2 10 км {гроза} 8/8 600 м
[Cb cap]
+19.2 +15.6 80 +21 +23 комфорт 1009.7 1005.7
09 13.07 З 2 20 км гроза без осадков 8/8 600 м
[Cb cap]
+23.3 +14.2 57 +27 +31 душно 1009.7 1005.8
12 13.07 В 2 20 км в посл. час гроза {ливн. осадки} 9/9 600 м
[Cb cap]
+16.9 +15.1 89 +17 +18 1010.5 1006.5
15 13.07 Ю 2 20 км {ливн. осадки, гроза} 4/4 600 м
[Sc diur, vesp]
+22.4 +13.8 58 +26 +27 жарко 1010.5 1006.6 +23.3 8
18 13.07 ЮЗ 1 10 км {ливн. осадки} 1/1 600 м
[Sc diur, vesp]
+17.7 +15.4 86 +19 +19 1011.3 1007.3
21 13.07 ЮЗ 1 10 км {ливн. осадки} ясно +14.7 +13.1 90 +15 +15 1011.3 1007.3
00 14.07 ЮЗ 1 10 км ясно +13.3 +12.0 92 +13 +13 1010.6 1006.6
03 14.07 З 1 20 км 1/0
[Ac trans]
+13.6 +12.4 92 +14 +15 1010.3 1006.3 +12.9
06 14.07 Ю 1 20 км 4/3 1000 м
[Cu med, cong Ci fib]
+23.1 +15.7 63 +27 +35 душно 1010.1 1006.2
09 14.07 З 3 20 км 6/6 600 м
[Cb cap]
+21.0 +15.7 72 +25 +31 комфорт 1009.7 1005.7
12 14.07 СВ 1 20 км 8/3 600 м
[Cb cap Ac cuf Ci fib]
+26.2 +11.2 39 +27 +34 жарко 1008.6 1004.7
15 14.07 СЗ 2 20 км {ливн. осадки} 10/3 600 м
[Sc diur, vesp Ac lent Ci fib]
+25.1 +13.9 50 +27 +28 жарко 1007.9 1004.0 +26.9 0.3
18 14.07 З 1 10 км {ливн. осадки} 9/0
[Cs]
+21.0 +15.3 70 +25 +25 комфорт 1007.8 1003.9
21 14.07 З 2 10 км 8/0
[Ac lent Cs]
+17.3 +15.2 87 +18 +18 1007.0 1003.0
00 15.07 ЮЗ 1 10 км 3/0
[Ci fib]
+15.0 +13.6 91 +15 +15 1005.5 1001.5
03 15.07 З 1 20 км 4/0
[Ci fib]
+14.5 +13.4 93 +15 +16 1004.3 1000.3 +13.8
06 15.07 В 2 10 км 9/0
[Ac trans Ci fib]
+21.3 +15.4 69 +24 +31 комфорт 1004.2 1000.2
09 15.07 В 2 20 км 9/5 600 м
[Sc As op]
+22.9 +15.5 63 +27 +30 душно 1004.1 1000.2
12 15.07 В 1 10 км слаб. ливневой дождь 8/8 600 м
[Cb cap]
+19.0 +16.5 85 +22 +25 комфорт 1004.9 1000.9
15 15.07 З 2 10 км {ливн. осадки} 10/6 600 м
[Sc Ac As]
+17.9 +15.6 86 +18 +19 1004.4 1000.4 +23.1 4
18 15.07 З 1 10 км {ливн. осадки} 9/9 600 м
[Cb cap]
+17.3 +15.7 90 +18 +18 1005.8 1001.8
21 15.07 СЗ 2 10 км 10/10 600 м
[Cb cap]
+16.8 +15.3 91 +17 +17 1005.3 1001.4
00 16.07 З 1 10 км {ливн. осадки} 9/6 600 м
[Cb cap Ac As]
+16.2 +15.0 93 +17 +17 1004.3 1000.3
03 16.07 З 1 10 км 10/6 600 м
[Cb cap Ac As]
+15.9 +14.9 94 +17 +17 1004.6 1000.6 +15.5 2
06 16.07 ЮЗ 2 10 км 9/9 600 м
[Cb cap]
+20.1 +16.2 78 +23 +24 комфорт 1005.3 1001.4

 

Местоположение метеостанции Крымск (Краснодарский край, Россия): широта 44.92 долгота 38.00 высота над уровнем моря 35 м.

В архиве по умолчанию представлена погода в Крымске за последнюю неделю. Архивные данные за месяц целиком и за предыдущие месяцы, начиная с января 2011 года, Вы можете получить, выбрав интересующий диапазон дат из раскрывающегося списка и нажав кнопку "Ввод!".


*Определитесь, кто Вы:
робот инопланетянин человек

Внимание! Время в таблицах - всемирное. Для получения местного времени необходимо прибавить поправку, которая равна 3 ч.

Смотрите также архив погоды в соседних городах и на ближайших метеорологических станциях:

Погода в Новороссийске (Краснодарский край, Россия) (25 км)
Погода в Геленджике (Краснодарский край, Россия) (39 км)
Погода в Славянске-на-Кубани (Краснодарский край, Россия) (41 км)
Погода в Анапе (Краснодарский край, Россия) (57 км)
Погода в Темрюке (Краснодарский край, Россия) (66 км)
Погода в Краснодаре (Краснодарский край, Россия) (82 км)
Погода в Джубге (Краснодарский край, Россия) (87 км)
Погода в Горячем Ключе (Краснодарский край, Россия) (93 км)
Погода в Тамани (Краснодарский край, Россия) (106 км)
Погода в Тимашевске (Краснодарский край, Россия) (107 км)

Пояснения к столбцам:

Ветер - указаны скорость ветра в м/с - средняя за 10 мин, порывы в срок и между сроками (в фигурных скобках) и направление, откуда дует ветер: С - северный, СВ - северо-восточный, В - восточный, ЮВ - юго-восточный, Ю - южный, ЮЗ - юго-западный, З - западный, СЗ - северо-западный.
Видимость - горизонтальная дальность видимости в метрах или километрах. При видимости от 1 до 10 км при отсутствии осадков обычно наблюдается дымка, при ухудшении видимости до 1 км и менее - туман. В сухую погоду видимость может ухудшаться дымом, пылью или мглою.
Явления - указаны атмосферные явления, наблюдавшиеся в срок или в последний час перед сроком; фигурными скобками обозначены явления, наблюдавшиеся между сроками (за 1-3 часа до срока); квадратными скобками обозначены град или гололедные отложения с указанием их диаметра в мм.
Облачность - указаны через наклонную черту общая и нижняя облачность в баллах и высота нижней границы облаков в метрах; квадратными скобками обозначены формы облаков: Ci - перистые, Cs - перисто-слоистые, Cc - перисто-кучевые, Ac - высококучевые, As - высокослоистые, Sc - слоисто-кучевые, Ns - слоисто-дождевые, Cu - кучевые, Cb - кучево-дождевые. Подробнее классификацию облаков см. в Атласе облаков (PDF).
T - Температура воздуха - температура, измеренная на высоте 2 м над землей.
Td - Температура точки росы - температура, при понижении до которой содержащийся в воздухе водяной пар достигнет насыщения.
f - Относительная влажность воздуха - влажноcть воздуха, измеренная на высоте 2 м над землей.
Te - Эффективная температура - температура, которую ощущает одетый по сезону человек в тени. Характеристика душности погоды. При расчете учитывается влияние влажности воздуха и скорости ветра на теплоощущения человека.
Tes - Эффективная температура на солнце - температура, которую ощущает человек, с поправкой на солнечный нагрев. Характеристика знойности погоды. Зависит от высоты солнца над горизонтом, облачности и скорости ветра. Ночью, в пасмурную погоду, а также при ветре 12 м/с и более поправка равна нулю.
P - Атмосферное давление - приведенное к уровню моря атмосферное давление.
Po - Атмосферное давление - измеренное на уровне метеостанции атмосферное давление.
Tmin - Минимальная температура - минимум температуры воздуха на высоте 2 м над землей.
Tmax - Максимальная температура - максимум температуры воздуха на высоте 2 м над землей.
R - Количество осадков - Количество выпавших осадков за период времени, мм. При наведении курсора мыши на число - период времени, за который выпало указанное количество осадков.
R24 - Количество осадков - Количество выпавших осадков за 24 часа, мм.
S - Снежный покров - Высота снежного покрова, см. При наведении курсора мыши на число - состояние снежного покрова и степень покрытия местности в баллах.